Regional Weather Roundup
Issued by NWS Portland, ME

Home | Current Version | Previous Version | Text Only | Print | Product List | Glossary On
Versions: 1 2 3 4 5 6 7 8 9 10 11 12 13 14 15 16 17 18 19 20 21 22 23 24 25 26 27 28 29 30 31 32 33 34 35 36 37 38 39 40 41 42 43 44 45 46 47 48 49 50
000
ASUS41 KGYX 031810
RWRGYX
WEATHER ROUNDUP FOR MAINE AND NEW HAMPSHIRE
NATIONAL WEATHER SERVICE GRAY ME
100 PM EST SAT DEC 03 2016

MEZ002-005-006-010-012-015-018-020-021-024-026-027-029-031900-
MAINE

CITY           SKY/WX    TMP DP  RH WIND       PRES   REMARKS
PORTLAND       MOSUNNY   42  25  50 NW15G28   29.82R
6HR MIN TEMP:  34; 6HR MAX TEMP:  46;

SANFORD        CLOUDY    42  25  50 NW14G22   29.83R
BAR HARBOR     CLOUDY    36  29  75 N10       29.76R
WISCASSET      MOSUNNY   44  25  47 VRB5      29.81R
6HR MIN TEMP:  32; 6HR MAX TEMP:  45;

ROCKLAND       PTSUNNY   39  26  59 VRB7G17   29.78R
FRYEBURG       CLOUDY    40  23  50 W10G20    29.84R
6HR MIN TEMP:  36; 6HR MAX TEMP:  44;

LEWISTONAUBURN CLOUDY    39  29  67 N12       29.82R
AUGUSTA        CLOUDY    40  22  48 N16G28    29.81R
6HR MIN TEMP:  34; 6HR MAX TEMP:  40;

WATERVILLE     CLOUDY    38  24  57 NW14      29.78R
BANGOR         CLOUDY    36  27  69 NW16      29.78R
6HR MIN TEMP:  33; 6HR MAX TEMP:  37; 6HR PCP:  0.01;

GREENVILLE       N/A     29  24  82 N14G22    29.74R WCI  18
6HR MIN TEMP:  28; 6HR MAX TEMP:  29; 6HR PCP:  0.02;

MILLINOCKET    CLOUDY    34  25  69 N7        29.78S
6HR MIN TEMP:  31; 6HR MAX TEMP:  34;

HOULTON        LGT SNOW  31  28  89 N10       29.74R FOG
6HR MIN TEMP:  29; 6HR MAX TEMP:  31; 6HR PCP: TRACE;

PRESQUE ISLE   LGT SNOW  31  29  92 N10       29.77R VSB 1
6HR MIN TEMP:  27; 6HR MAX TEMP:  32; 6HR PCP: TRACE;

FRENCHVILLE    CLOUDY    30  25  81 NW13      29.76R WCI  20
6HR MIN TEMP:  24; 6HR MAX TEMP:  30; 6HR PCP: TRACE;

CARIBOU        LGT SNOW  31  27  85 N9        29.75S FOG
6HR MIN TEMP:  27; 6HR MAX TEMP:  31; 6HR PCP:  0.02;

$$

NHZ002-005-008-009-011-012-014-031900-
NEW HAMPSHIRE

CITY           SKY/WX    TMP DP  RH WIND       PRES   REMARKS
PORTSMOUTH     PTSUNNY   44  25  47 W17G28    29.83R
ROCHESTER      CLOUDY    43  24  47 NW17G23   29.84R
6HR MIN TEMP:  36; 6HR MAX TEMP:  44;

NASHUA         CLOUDY    43  25  49 NW24      29.88S
MANCHESTER     NOT AVBL
CONCORD        CLOUDY    43  25  49 NW16G23   29.88R
6HR MIN TEMP:  36; 6HR MAX TEMP:  44;

LACONIA        CLOUDY    39  26  59 W10G18    29.86S
PLYMOUTH       LGT SNOW  37  30  78 W10G17    29.88R
BERLIN         FLURRIES  35  27  72 NW7       29.82R
6HR MIN TEMP:  33; 6HR MAX TEMP:  35; 6HR PCP: TRACE;

WHITEFIELD     CLOUDY    35  25  66 NW10      29.86R
6HR MIN TEMP:  33; 6HR MAX TEMP:  35; 6HR PCP: TRACE;

JAFFREY        CLOUDY    38  22  52 NW10G18   29.89S
6HR MIN TEMP:  34; 6HR MAX TEMP:  38;

KEENE          CLOUDY    40  25  55 NW9G17    29.92S
LEBANON        CLOUDY    39  29  67 N12       29.90R
6HR MIN TEMP:  36; 6HR MAX TEMP:  41;

MT WASHINGTON  SNOWSHWR  12  12 100 NW54G71     N/A  VSB 0   WCI -15
6HR MIN TEMP:  12; 6HR MAX TEMP:  13; 6HR PCP:  0.28;

$$

VTZ005-007-008-031900-
VERMONT

CITY           SKY/WX    TMP DP  RH WIND       PRES   REMARKS
ST JOHNSBURY     N/A     37  26  64 MISG      29.88R
MONTPELIER     LGT SNOW  31  28  89 NW16G26   29.93S FOG     WCI  20
BURLINGTON     FLURRIES  36  28  73 NW15      29.97R
$$

MAZ007-012-024-CTZ003-RIZ002-NYZ038-NYZ072-031900-
SOUTHERN NEW ENGLAND AND NY

CITY           SKY/WX    TMP DP  RH WIND       PRES   REMARKS
BOSTON         PTSUNNY   43  27  53 NW20G31   29.88R
WORCESTER      CLOUDY    37  24  59 W18G30    29.88R
NANTUCKET      PTSUNNY   46  27  47 NW21G26   29.85S
PROVIDENCE     PTSUNNY   47  25  42 N20G28    29.89F
HARTFORD       PTSUNNY   45  25  45 NW16G25   29.96S
ALBANY         MOSUNNY   42  23  46 NW21G33   30.01R
NEW YORK CITY  PTSUNNY   49  28  44 NW23G30   30.03R
$$

ANZ081-ANZ082-ANZ150-NHZ014-MEZ023>029-031900-
COASTAL MARINE OBSERVATIONS

STATION/POSITION TIME  TEMP    WIND        PRES    WAVE
                       AIR SEA DIR/SP/G            HT/PER
                 (UTC) (F)     (DEG/KT/KT) (MB)    (FT/S)
MOUNT DESERT ROC 1800   38                 1007.0R
MATINICUS ROCK   1700   39     350/ 21/ 25 1007.1R
ISLE OF SHOALS   1700   43     300/ 26/ 28 1009.5R
JEFFREYS LEDGE   1738      51                N/A     5/ 5
CASHES LEDGE BUO 1750   42 51  330/ 21/ 25 1007.7R   7/ 6
GEORGES BANK BUO 1750   47 52              1003.7F  10/ 8
$$

.............KEY..............
   WCI - WIND CHILL
   TC  - TEMPERATURE IN CELSIUS
   VSB - VISIBILITY IN MILES
   HX  - HEAT INDEX
   FAIR- INDICATES FEW OR NO CLOUDS BELOW 12,000 FT, WITH NO
         SIGNIFICANT WEATHER AND/OR OBSTRUCTIONS TO VISIBILITY.






USA.gov is the U.S. government's official web portal to all federal, state and local government web resources and services.